Погода в Нукусе

Погода в Нукусе : погода сейчас, прогноз погоды и архив. Всё, что Вы хотите узнать о погоде в Нукусе!

Поиск расширенной информации на нашем сайте:

Полезная информация:

Другие новости

Новости СМИ2

Главная страница сайта

Новости сайта

03.07.2017

Напоминаем, что на нашем специализированном сайте Метеоцентр.Азия вы можете получить высокодетализированные автоматические прогнозы погоды по пунктам России, СНГ и мира в авиационном формате (включающие направление и скорость ветра, видимость, явления погоды, количество и форму облачности, нижнюю и верхнюю границу облачности).

Рекомендуем:

Погода в Нукусе - сегодня

Время (UTC), дата Ветер
(°,м/с) 
Видим.   Явления Облачность Т
(°С)
Тd
(°С)
f(%) Тe
(°С)
Pmin
(гПа)
dP
(гПа)
Po
(мм)
O2
(г/м3)
Тmin Tmax R s Состояние
почвы
12 20.03.19 120 (ЮВ) 20000 м    8/3 1500 м кучево-дожд., средняя 
[Cb cap|Ac As]
+16.9 +4.1 43 +18  1015.1  0.2  755  286           
15 20.03.19 210 (ЮЗ) 20000 м    10/3 1500 м кучево-дожд., средняя 
[Cb cap|Ac As]
+15.6 +5.6 51 +17  1016.1  755  287    +18.4       
18 20.03.19 170 (Ю) 20000 м    9/9 1500 м 
[Sc]
+14.3 +6.4 59 +14  1017  0.8  756  288    +18.4       
21 20.03.19 220 (ЮЗ) 20000 м    9/9 1500 м 
[Sc]
+12.8 +6.2 64 +13  1016.5  -0.5  756  290           
00 21.03.19 220 (ЮЗ) 20000 м    9/0 средняя 
[Ac As]
+11.3 +4.6 63 +11  1016.2  -0.3  755  292           
03 21.03.19 190 (Ю) 20000 м    9/0 
[Sc]
+10.3 +5.3 71 +10  1017.3  1.1             
06 21.03.19 190 (Ю) 20000 м    8/3 1500 м средняя 
[Sc|Ac As]
+11.9 +7.1 72 +11  1018.1  0.8  757  291  +10         
09 21.03.19 190 (Ю) 20000 м    9/9 1000 м 
[Sc]
+12.6 +6.5 66 +12  1018.4  0.3  757  291           
12 21.03.19 200 (Ю) 20000 м    10/4 1000 м кучево-дожд. 
[Cb cap]
+12.8 +6.1 64 +12  1018.1  -0.3  757  290           
15 21.03.19 190 (Ю) 20000 м    9/9 1000 м 
[Sc]
+11.5 +5.9 68 +11  1018.5  0.4  757  292    +13.2       
18 21.03.19 190 (Ю) 20000 м    9/9 1500 м 
[Sc]
+10.7 +5.8 72 +10  1018.8  0.3  757  293    +13.2       
21 21.03.19 200 (Ю) 20000 м    9/9 1500 м 
[Sc]
+9.7 +5.6 76 +9  1018.5  -0.3  757  294           
00 22.03.19 210 (ЮЗ) 20000 м    9/9 1500 м 
[Sc]
+9.3 +6.1 80 +9  1018.4  -0.3  757  294           
03 22.03.19 220 (ЮЗ) 20000 м  {ливн. осадки}  10/3 1500 м кучево-дожд., средняя 
[Cb cap|Ac As]
+8.7 +7.3 91 +8  1018.8  0.4             
06 22.03.19 190 (Ю) 20000 м  в посл. час ливневой дождь  10/4 1000 м кучево-дожд., средняя 
[Cb cap|Ac As]
+9.9 +7.8 87 +9  1019.7  1.1  758  293  +8.5    0.4     
09 22.03.19 250 (З) 20000 м    9/0 средняя 
[Ac trans]
+14.5 +2.3 44 +15  1018.5  -1.2  757  289           
12 22.03.19 250 (З) 20000 м    9/6 1500 м средняя 
[Sc|Ac trans]
+16.5 +2.7 40 +17  1016.9  -1.5  756  287           
15 22.03.19 220 (ЮЗ) 20000 м    9/4 1500 м средняя 
[Sc|Ac As]
+14.9 +4.6 50 +16  1017.3  0.4  756  288    +16.8  0.0     
18 22.03.19 230 (ЮЗ) 20000 м    9/0 средняя 
[Ac trans]
+12.6 +6.1 65 +12  1018  0.6  757  290    +16.8  0.0     
21 22.03.19 230 (ЮЗ) 20000 м    6/0 средняя 
[Ac trans]
+10.5 +6.7 77 +10  1018  757  293           
00 23.03.19 240 (ЮЗ) 20000 м    6/0 средняя 
[Ac trans]
+8.4 +5.8 84 +8  1018  -0.2  757  295           
03 23.03.19 190 (Ю) 20000 м    3/0 средняя 
[Ac trans]
+7 +4.3 83 +7  1018.4  0.4  757  297           
06 23.03.19 250 (З) 20000 м    5/0 средняя 
[Ac trans]
+12.9 +4.3 56 +13  1019.4  1.2  758  291  +6.5         
09 23.03.19 190 (Ю) 20000 м    8/0 средняя 
[Ac trans]
+16.6 +3 40 +18  1018.7  -0.6  757  287           
12 23.03.19 180 (Ю) 20000 м  {ливн. осадки}  10/3 1500 м кучево-дожд., средняя 
[Cb cap|Ac cast]
+16.6 +2.5 39 +17  1018  -0.7  757  287           
Время (UTC), дата Ветер
(°,м/с) 
Видим.   Явления Облачность Т
(°С)
Тd
(°С)
f(%) Тe
(°С)
Pmin
(гПа)
dP
(гПа)
Po
(мм)
O2
(г/м3)
Тmin Tmax R s Состояние
почвы

Для получения пояснительной информации подведите курсор к названию столбца.

ПОГОДА в Нукусе - архив

Всё, что Вы хотите узнать о погоде в Нукусе - удобно и подробно!

Выберите нужную дату (начиная с 1 января 2018* года) и нажмите кнопку "Найти".
Будут отображены архивные сводки погоды по пункту Нукус, начиная с указанной даты.


Отображать данные в формате CSV (для использования в таблицах Excel)


Внимание! Наш архив погоды предназначен исключительно для личного некоммерческого использования в познавательных целях. Если Вам необходимы официальные справки о состоянии погоды (для производственных, юридических, коммерческих и т.п. целей), обращайтесь в органы Росгидромета.

*Примечание: данная дата относится к архиву по метеостанциям СССР (Россия, СНГ, Балтия).
Архив по метеостанциям Зарубежной Европы и Азии (кроме Китая) хранится 10 дней, по другим регионам земного шара (Китай, Африка, Америка, Австралия, Океания) - 1 день.

Нукус - район местоположения метеостанции


Название, широта, долгота, высота метеостанции:
Нукус 42.4°ш. 59.6°д. 77 м над ур. моря [Узбекистан]

Дополнительная информация

В oтличие oт бoльшинства пoгoдных сайтoв мы публикуем пoдрoбную метеoинфoрмацию в детальнoм прoфессиoнальнoм фoрмате.

Характеристики температуры и влажнoсти вoздуха измеряются на высoте 2 м в тени вдали oт зданий и деревьев.
Скoрoсть ветра измеряется на высoте 10 м (на урoвне рoста челoвека скoрoсть ветра ниже в 1.5-2 раза). Если метеoстанция нахoдится в гoрoде или в лесу, тo скoрoсть ветра занижена на 2-4 м/с пo сравнению с oткрытым местoм. Скoрoсть ветра над акватoриями крупных рек и oзёр, а также на вершинах хoлмoв на 2-5 м/с выше, чем в oбычных услoвиях.
Атмoсфернoе давление в разных тoчках местнoсти мoжет значительнo oтличаться oт давления на метеoстанции, в зависимoсти oт услoвий рельефа (при пoдъёме на 10 м давление пoнижается примернo на 1 мм рт.ст.).